[[{"header":{"parameterUnit":"m.s-1","parameterCategory":1,"la1":30.2992,"la2":30.254,"lo1":-89.0895,"lo2":-89.0443,"dy":0.0025,"dx":0.0025,"nx":19,"ny":19,"refTime":"2026-03-21T21:00:00:Z","depth":0,"parameterNumber":2,"parameterNumberName":"U-component_of_WINDS"},"data":[0,0,0,3.4693,3.4698,3.4968,3.4969,3.5296,3.5298,0,0,0,0,0,0,0,0,0,0,0,3.4598,3.4599,3.4692,3.4699,3.4968,3.4969,3.5295,3.5298,0,0,0,0,0,0,0,0,0,0,0,3.4597,3.4599,3.4601,3.4699,3.4968,3.4969,3.5295,3.5098,0,0,0,0,0,0,0,0,0,0,3.484,3.4737,3.4599,3.4601,3.4701,3.4967,3.497,3.5089,3.5111,3.5164,0,3.5205,0,3.5257,3.5319,3.532,0,0,0,3.471,3.4719,3.4805,3.4601,3.4703,3.4967,3.485,3.5102,3.5126,3.5192,3.521,3.5223,3.5262,3.5321,3.5322,3.5588,3.5588,0,0,3.4695,3.4639,3.4788,3.482,3.4773,3.4841,3.4858,3.5116,3.5133,3.5211,3.5231,3.5267,3.5323,3.5325,3.5587,3.5588,0,0,0,3.4645,3.4628,3.4708,3.4806,3.4855,3.4848,3.4868,3.5121,3.5152,3.5234,3.5271,3.5324,3.5328,3.5586,3.5587,3.5567,0,0,0,3.4636,3.4598,3.4701,3.4669,3.485,3.4991,3.4867,3.5134,3.5165,3.527,3.5325,3.5331,3.5586,3.5587,3.5566,3.5567,0,0,0,3.4585,3.4593,3.4626,3.4665,3.4779,3.4988,3.5034,3.5142,3.5187,3.532,3.5332,3.5585,3.5587,3.5565,3.5566,3.5623,0,0,0,3.4515,3.4603,3.4625,3.4738,3.4776,3.4972,3.5033,3.5182,3.5293,3.5326,3.5586,3.5587,3.5565,3.5565,3.5621,3.5661,3.5672,0,0,3.4595,3.4611,3.4682,3.471,3.4886,3.4935,3.5112,3.5268,3.5333,3.55,3.5507,3.5566,3.5566,3.5623,3.5748,3.5756,0,0,0,3.4688,3.4739,3.4798,3.4901,3.5022,3.5127,3.5262,3.5321,3.5466,3.5406,3.5603,3.5604,3.564,3.5662,3.5669,3.5705,3.5594,3.5594,3.5594,3.472,3.4799,3.4924,3.5036,3.5135,3.5275,3.5364,3.5468,3.5518,3.5563,3.5614,3.568,3.5703,3.5709,3.5745,3.564,3.564,3.564,3.564,3.4846,3.4932,3.4998,3.5142,3.5227,3.535,3.5491,3.5522,3.5653,3.5647,3.5683,3.5672,3.5715,3.5751,3.5639,3.5639,3.5639,3.5639,3.5639,3.4877,3.4933,3.5002,3.5161,3.5276,3.5388,3.551,3.5583,3.5652,3.5687,3.575,3.5751,3.5763,3.5711,3.5712,3.5712,3.5712,3.5712,3.5713,3.4883,3.4962,3.5055,3.5193,3.527,3.5382,3.5526,3.5606,3.5713,3.5757,3.5758,3.5806,3.5703,3.5677,3.5717,3.5716,3.5715,3.5715,3.5715,3.4985,3.4974,3.5117,3.5195,3.5366,3.5477,3.5568,3.5725,3.5802,3.5861,3.5903,3.5814,3.5836,3.5831,3.5811,3.5882,3.5882,3.5882,3.5882,3.5013,3.5031,3.5196,3.5316,3.5443,3.554,3.5705,3.582,3.5937,3.5991,3.5991,3.5969,3.5961,3.5989,3.598,3.5963,3.6071,3.6072,3.6072,3.5082,3.5116,3.524,3.5352,3.5492,3.5612,3.5771,3.591,3.6041,3.6081,3.6036,3.6028,3.5993,3.5977,3.6016,3.6001,3.597,0,0]},{"header":{"parameterUnit":"m.s-1","parameterCategory":1,"la1":30.2992,"la2":30.254,"lo1":-89.0895,"lo2":-89.0443,"dy":0.0025,"dx":0.0025,"nx":19,"ny":19,"refTime":"2026-03-21T21:00:00:Z","depth":0,"parameterNumber":3,"parameterNumberName":"V-component_of_WINDS"},"data":[0,0,0,-0.6891,-0.689,-0.6877,-0.6877,-0.686,-0.686,0,0,0,0,0,0,0,0,0,0,0,-0.6896,-0.6896,-0.6891,-0.689,-0.6877,-0.6877,-0.686,-0.686,0,0,0,0,0,0,0,0,0,0,0,-0.6896,-0.6896,-0.6896,-0.689,-0.6877,-0.6877,-0.686,-0.687,0,0,0,0,0,0,0,0,0,0,-0.6883,-0.6889,-0.6896,-0.6896,-0.689,-0.6877,-0.6877,-0.687,-0.6869,-0.6866,0,-0.6865,0,-0.6862,-0.6859,-0.6859,0,0,0,-0.6889,-0.689,-0.6885,-0.6896,-0.689,-0.6877,-0.6883,-0.687,-0.6868,-0.6865,-0.6865,-0.6864,-0.6862,-0.6858,-0.6858,-0.6847,-0.6847,0,0,-0.689,-0.6894,-0.6886,-0.6884,-0.6888,-0.6883,-0.6882,-0.6869,-0.6869,-0.6865,-0.6864,-0.6861,-0.6858,-0.6858,-0.6847,-0.6847,0,0,0,-0.6893,-0.6894,-0.689,-0.6885,-0.6883,-0.6883,-0.6882,-0.6869,-0.6867,-0.6863,-0.6861,-0.6858,-0.6858,-0.6847,-0.6847,-0.685,0,0,0,-0.6893,-0.6896,-0.689,-0.6893,-0.6883,-0.6876,-0.6883,-0.6868,-0.6867,-0.6861,-0.6858,-0.6858,-0.6847,-0.6847,-0.685,-0.6852,0,0,0,-0.6896,-0.6896,-0.6895,-0.6893,-0.6887,-0.6876,-0.6874,-0.6868,-0.6865,-0.6858,-0.6858,-0.6847,-0.6847,-0.685,-0.6851,-0.6849,0,0,0,-0.69,-0.6899,-0.6895,-0.6892,-0.6887,-0.6879,-0.6874,-0.6867,-0.6861,-0.6858,-0.6847,-0.6847,-0.685,-0.6851,-0.6849,-0.6849,-0.6849,0,0,-0.69,-0.6899,-0.6896,-0.6893,-0.6886,-0.688,-0.6873,-0.6864,-0.686,-0.6851,-0.6851,-0.685,-0.6851,-0.6849,-0.6847,-0.6847,0,0,0,-0.6898,-0.6896,-0.6893,-0.6888,-0.6881,-0.6875,-0.6867,-0.6863,-0.6855,-0.6856,-0.6849,-0.6849,-0.6848,-0.6847,-0.6848,-0.6846,-0.6846,-0.6846,-0.6846,-0.6903,-0.6897,-0.6893,-0.6885,-0.688,-0.6871,-0.6866,-0.6859,-0.6855,-0.6853,-0.6851,-0.685,-0.685,-0.685,-0.6849,-0.685,-0.685,-0.685,-0.685,-0.6903,-0.6899,-0.6893,-0.6886,-0.688,-0.6874,-0.6864,-0.6861,-0.6853,-0.6852,-0.685,-0.685,-0.685,-0.6849,-0.685,-0.685,-0.685,-0.685,-0.685,-0.6906,-0.6904,-0.6899,-0.689,-0.6884,-0.6875,-0.6868,-0.6862,-0.6856,-0.6855,-0.6851,-0.6851,-0.6851,-0.6854,-0.6854,-0.6854,-0.6854,-0.6854,-0.6854,-0.6912,-0.6907,-0.6902,-0.6894,-0.6889,-0.6882,-0.6871,-0.6866,-0.6858,-0.6854,-0.6854,-0.685,-0.6851,-0.6852,-0.6853,-0.6853,-0.6853,-0.6853,-0.6854,-0.6915,-0.6913,-0.6906,-0.6901,-0.689,-0.6883,-0.6875,-0.6864,-0.6859,-0.6856,-0.6851,-0.6853,-0.6851,-0.6851,-0.6851,-0.6852,-0.6852,-0.6852,-0.6852,-0.6918,-0.6916,-0.6907,-0.69,-0.6891,-0.6883,-0.6874,-0.6865,-0.6855,-0.6851,-0.6849,-0.6849,-0.6849,-0.6847,-0.6847,-0.6848,-0.6848,-0.6848,-0.6848,-0.6919,-0.6916,-0.691,-0.6901,-0.6891,-0.6882,-0.6873,-0.6864,-0.6852,-0.6847,-0.6847,-0.6848,-0.6847,-0.6848,-0.6844,-0.6844,-0.6845,0,0]}]]